Regional Weather Roundup
Issued by NWS

Home | Current Version | Previous Version | Text Only | Print | Product List | Glossary Off
Versions: 1 2 3 4 5 6 7 8 9 10 11 12 13 14 15 16 17 18 19 20 21 22 23 24 25 26 27 28 29 30 31 32 33 34 35 36 37 38 39 40 41 42 43 44 45 46 47 48 49 50

000
ASUS45 KBOU 290107
RWRCO

WEATHER ROUNDUP FOR COLORADO
NATIONAL WEATHER SERVICE DENVER/BOULDER CO
700 PM MDT MON JUL 28 2014

NOTE: "FAIR" INDICATES FEW OR NO CLOUDS BELOW 12000 FEET WITH NO
SIGNIFICANT WEATHER AND/OR OBSTRUCTIONS TO VISIBILITY.

COZ001>005-013-030-031-290200-
...NORTHWEST COLORADO...

CITY           SKY/WX    TMP DP  RH WIND       PRES   REMARKS
CRAIG          CLOUDY    69  49  48 W18G24    30.27S
HAYDEN         CLOUDY    77  43  29 NW7       30.29R
MEEKER         CLOUDY    69  50  50 W3        30.32S
MOUNT WERNER   NOT AVBL
STEAMBOAT SPGS CLOUDY    74  44  34 E3        30.30F
WALDEN         CLOUDY    70  39  32 E10       30.41F
$$

COZ006>008-011-290200-
...WEST CENTRAL VALLEYS...

CITY           SKY/WX    TMP DP  RH WIND       PRES   REMARKS
GRAND JUNCTION CLOUDY    81  53  37 W6        30.18S
MONTROSE       PTSUNNY   83  49  30 N5        30.26S
EAGLE          CLOUDY    66  55  68 CALM      30.39R
RIFLE          LGT RAIN  70  54  56 E18G25    30.30R
DELTA          PTSUNNY   85  50  30 E15G23    30.21S
NUCLA          PTSUNNY   81  45  28 E5        30.30R
$$

COZ017>023-064>068-290200-
...SOUTHWEST COLORADO...

CITY           SKY/WX    TMP DP  RH WIND       PRES   REMARKS
DURANGO        LGT RAIN  64  55  72 E9        30.40S
CORTEZ         CLOUDY    73  56  54 E17       30.32R
PAGOSA SPRINGS CLOUDY    62  56  80 CALM      30.49R
TELLURIDE      CLOUDY    64  54  68 S5        30.51R
WOLF CREEK PAS NOT AVBL
$$

COZ009-010-012-014-032>034-037-058>063-290200-
...CENTRAL COLORADO...

CITY           SKY/WX    TMP DP  RH WIND       PRES   REMARKS
ASPEN          LGT RAIN  58  54  86 S5        30.49F
BUENA VISTA    CLOUDY    59  53  79 W8        30.52F
COPPER MTN     LGT RAIN  46  41  81 S24       30.76S
BERTHOUD PASS  TSTM      41  28  60 MISG      30.80F
COTTONWOOD PAS CLOUDY    55  50  82 CALM      30.64F
GUNNISON       CLOUDY    63  50  63 N12       30.48R
KREMMLING      CLOUDY    70  43  37 S14G22    30.39S
LEADVILLE      LGT RAIN  50  48  93 NW6       30.64F
MONARCH PASS   FOG       43  43 100 E20       30.84S VSB<1/4
SALIDA         CLOUDY    62  57  83 NW3       30.57S
SUNLIGHT       TSTM      52  48  87 SE5       30.69S
WILKERSON PASS CLOUDY    45  41  87 SW3       30.74F
$$

COZ069>075-290200-
...SAN LUIS VALLEY/SANGRE DE CRISTO MOUNTAINS...

CITY           SKY/WX    TMP DP  RH WIND       PRES   REMARKS
ALAMOSA        CLOUDY    69  53  56 S10       30.41R
LA VETA PASS   TSTM      50  46  87 NW6       30.65R
SAGUACHE       CLOUDY    70  48  46 NE10G20   30.44S
$$

COZ035-036-038>040-290200-
...NORTHERN COLORADO FRONT RANGE...

CITY           SKY/WX    TMP DP  RH WIND       PRES   REMARKS
DENVER INTL AP CLOUDY    76  58  53 S14       30.26F
DMNS CITY PARK   N/A     76  55  47 S5G13     30.24S
AURORA         PTSUNNY   74  57  56 S13       30.28F
FRONT RANGE AP NOT AVBL
ERIE MUNI ARPT CLOUDY    77  54  43 S6        30.22F
BOULDER MUN AP CLOUDY    79  55  44 S5        30.22F
CENTENNIAL     CLOUDY    71  51  49 SW15      30.29F
BROOMFIELD     PTSUNNY   73  61  64 S3        30.27F
FORT COLLINS   PTSUNNY   82  55  39 S12       30.18F
LONGMONT       PTSUNNY   80  50  34 SW6       30.23F
$$

COZ041-046-047-076>085-087-088-290200-
...PIKES PEAK/PALMER DIVIDE AND SOUTHERN FOOTHILLS...

CITY           SKY/WX    TMP DP  RH WIND       PRES   REMARKS
COLO. SPRINGS  CLOUDY    69  59  70 S8        30.37F
A. F. ACADEMY  CLOUDY    67  60  78 S8        30.38S
ELLICOTT       CLOUDY    69  59  70 S7        30.36S
FALCON         CLOUDY    66  57  73 S8        30.42S
FORT CARSON    CLOUDY    69  62  77 S7        30.35S
LIMON          CLOUDY    74  54  49 S14       30.30F
MONUMENT HILL  CLOUDY    63  57  82 S10       30.39F
TRINIDAD       CLOUDY    75  60  59 S6        30.31S
$$

COZ042>045-048>051-090-091-290200-
...NORTHEAST COLORADO...

CITY           SKY/WX    TMP DP  RH WIND       PRES   REMARKS
GREELEY ARPT   PTSUNNY   81  59  47 S12G17    30.21F
AKRON          CLOUDY    81  52  36 S17G26    30.24R
BURLINGTON     PTSUNNY   77  54  44 S8        30.26S
WRAY             N/A     83  50  32 S12       30.21S
STERLING       CLOUDY    77  59  53 S5        30.20S
HOLYOKE        PTSUNNY   81  59  47 S6        30.21S
FORT MORGAN    CLOUDY    81  54  39 S13G18    30.23R
$$

COZ086-089-092>099-290200-
...SOUTHEAST COLORADO...

CITY           SKY/WX    TMP DP  RH WIND       PRES   REMARKS
PUEBLO         CLOUDY    78  62  57 CALM      30.26S
LA JUNTA       CLOUDY    78  62  57 S8        30.23S
LAMAR          MOSUNNY   77  59  53 S14       30.22S
SPRINGFIELD      N/A     70  60  70 S14       30.28F
$$



USA.gov is the U.S. government's official web portal to all federal, state and local government web resources and services.